[[{"header":{"parameterUnit":"m.s-1","parameterCategory":1,"la1":30.2991,"la2":30.254,"lo1":-89.0895,"lo2":-89.0444,"dy":0.0017,"dx":0.0017,"nx":28,"ny":28,"refTime":"2023-06-28T21:00:00:Z","depth":0,"parameterNumber":2,"parameterNumberName":"U-component_of_WINDS"},"data":[0,0,0,0,0,0,0,0,0,0,0,0,0,0,0,0,0,0,0,0,0,0,0,0,0,0,0,0,0,0,0,0,0,0,0,0,0,0,0,0,0,0,0,0,0,0,0,0,0,0,0,0,0,0,0,0,0,0,2.1129,2.1128,0,2.1087,2.1087,2.1086,2.0999,2.0997,2.0995,2.0994,2.0956,2.0956,2.0957,0,0,0,0,0,0,0,0,0,0,0,0,0,2.1138,2.1138,2.1129,2.1128,2.1128,2.1087,2.1087,2.1086,2.0999,2.0997,2.0995,2.0993,2.0956,2.0956,2.0957,0,0,0,0,0,0,0,0,0,0,0,0,0,2.1119,2.1138,2.1129,2.1079,2.1074,2.1087,2.1087,2.1086,2.1,2.0997,2.0994,2.0992,2.0955,2.0956,2.0957,2.1016,0,0,2.096,2.0961,0,0,0,0,0,0,0,0,2.112,2.1119,2.1087,2.1083,2.1077,2.1045,2.1076,2.1063,2.1,2.1028,2.0994,2.0991,2.0988,2.0986,2.0984,2.1014,2.1013,2.096,2.0961,2.0961,2.0962,0,0,0,0,0,0,0,2.1122,2.112,2.1112,2.1087,2.1081,2.1061,2.1055,2.1073,2.1024,2.1026,2.1019,2.1015,2.0985,2.0984,2.0983,2.1012,2.096,2.0961,2.0962,2.0962,2.1092,2.1094,0,0,0,0,0,0,2.1129,2.1122,2.1114,2.1111,2.1092,2.1063,2.1057,2.1058,2.1023,2.1015,2.1018,2.1011,2.0983,2.0982,2.0981,2.105,2.0961,2.0962,2.0963,2.1089,2.1092,2.1095,0,0,0,0,0,0,2.113,2.1129,2.1115,2.1115,2.1111,2.1065,2.1068,2.1059,2.1058,2.1017,2.1008,2.1025,2.0981,2.098,2.1008,2.1048,2.0963,2.0963,2.1085,2.109,2.1094,2.1188,0,0,0,0,0,0,2.1131,2.113,2.1151,2.1116,2.1112,2.1142,2.1071,2.106,2.1059,2.105,2.1022,2.1015,2.0979,2.1008,2.1009,2.1047,2.0964,2.1082,2.1087,2.1092,2.1181,2.1195,2.1206,0,0,0,0,0,2.1131,2.1179,2.1152,2.1152,2.1136,2.1144,2.1142,2.1099,2.1062,2.1084,2.1058,2.1015,2.1042,2.1011,2.1013,2.1052,2.1079,2.1086,2.1092,2.1175,2.1192,2.1206,0,0,0,0,0,0,2.1222,2.1174,2.1143,2.1181,2.1167,2.113,2.1155,2.1118,2.1115,2.1108,2.1055,2.105,2.1087,2.1071,2.1037,2.1108,2.1054,2.1061,2.1117,2.1133,2.1145,2.1149,2.0965,0,0,0,0,0,2.1246,2.1255,2.1213,2.1251,2.1245,2.1202,2.1203,2.1171,2.1156,2.115,2.1126,2.1114,2.112,2.1125,2.1128,2.1177,2.1172,2.1205,2.1218,2.1228,2.1236,2.1265,2.128,2.1116,2.1116,2.1116,0,0,2.1296,2.1271,2.128,2.1268,2.1254,2.1267,2.1197,2.1213,2.1223,2.1153,2.1179,2.1161,2.1144,2.1184,2.1201,2.1173,2.128,2.1237,2.1246,2.1247,2.1273,2.1288,2.1302,2.1121,2.112,2.1119,0,0,2.1395,2.1376,2.1406,2.1393,2.1372,2.1343,2.135,2.1318,2.1304,2.1328,2.1277,2.1288,2.1298,2.1289,2.1286,2.1383,2.1345,2.1385,2.1453,2.1481,2.1494,2.1505,2.1543,2.1557,2.1392,2.1392,2.1392,0,2.1462,2.1477,2.1427,2.1447,2.1444,2.138,2.1412,2.1402,2.1383,2.1384,2.1352,2.1365,2.1349,2.1388,2.1412,2.141,2.1419,2.1389,2.1496,2.1506,2.1516,2.1552,2.1566,2.1398,2.1397,2.1396,2.1396,0,2.1561,2.1572,2.16,2.1583,2.1583,2.1609,2.1565,2.1571,2.1539,2.1515,2.1542,2.152,2.1519,2.1525,2.1494,2.156,2.1544,2.1505,2.145,2.1538,2.1571,2.1584,2.1405,2.1403,2.1402,2.14,0,0,2.1717,2.1672,2.1684,2.1676,2.1648,2.1657,2.1681,2.1678,2.1687,2.1676,2.1696,2.1707,2.1671,2.1667,2.1635,2.1659,2.1741,2.1617,2.1616,2.1644,2.1817,2.1849,2.1865,2.1714,2.1716,2.1718,2.1819,0,2.1813,2.185,2.1806,2.1853,2.1865,2.1804,2.1825,2.1812,2.1789,2.1797,2.1772,2.1782,2.1732,2.173,2.1751,2.1727,2.1776,2.1718,2.1736,2.1737,2.1746,2.1882,2.1915,2.2012,2.1831,2.1833,2.1835,0,2.1929,2.1924,2.1972,2.1943,2.1946,2.1966,2.1961,2.1968,2.1952,2.1934,2.1931,2.1891,2.1915,2.1859,2.1893,2.1855,2.1859,2.1849,2.1851,2.1854,2.1794,2.1892,2.2041,2.2057,2.1854,2.1852,2.1851,0,2.2043,2.2048,2.2078,2.2073,2.2038,2.2054,2.2041,2.2021,2.2023,2.2019,2.2021,2.202,2.2021,2.2022,2.1984,2.1947,2.2024,2.1964,2.2012,2.2014,2.2034,2.2034,2.219,2.2031,2.2031,2.2031,2.2031,0,2.2156,2.219,2.2129,2.2148,2.2184,2.2133,2.2171,2.2151,2.2135,2.2151,2.2097,2.2114,2.2061,2.2073,2.2043,2.2077,2.2077,2.2065,2.2058,2.2072,2.2074,2.2077,2.2071,2.2035,2.2034,2.2033,2.2032,0,2.2291,2.2251,2.2281,2.2245,2.2237,2.2266,2.2236,2.2254,2.2227,2.2248,2.225,2.2209,2.222,2.2181,2.2186,2.2166,2.2218,2.2197,2.2223,2.2218,2.227,2.2267,2.2436,2.2457,2.2282,2.2283,2.2285,0,2.2368,2.2392,2.2359,2.2365,2.2354,2.2365,2.2366,2.2318,2.2322,2.2306,2.2327,2.2332,2.2335,2.2356,2.2328,2.2331,2.2313,2.2372,2.2313,2.2328,2.2318,2.2319,2.2323,2.2385,2.2388,2.2389,2.2391,0,2.251,2.2489,2.2493,2.249,2.2493,2.2489,2.2481,2.249,2.2438,2.2446,2.2456,2.2458,2.2462,2.247,2.2468,2.2456,2.2417,2.2409,2.2421,2.2438,2.2454,2.2449,2.226,2.2406,2.2404,2.2403,2.2402,2.2402,2.2621,2.264,2.262,2.2627,2.2616,2.261,2.2625,2.26,2.2607,2.2606,2.2577,2.2594,2.2578,2.2571,2.2563,2.2577,2.255,2.2566,2.2571,2.2577,2.2588,2.2448,2.2576,2.2575,2.2575,2.2575,2.2574,0,2.2763,2.2747,2.2753,2.2744,2.275,2.2709,2.2698,2.2707,2.2722,2.271,2.2713,2.2726,2.2734,2.2706,2.271,2.2727,2.2709,2.273,2.273,2.2729,2.261,2.2601,2.2744,2.2744,2.2744,2.2744,2.2744,2.2744,2.2838,2.287,2.2847,2.2874,2.2857,2.2872,2.287,2.2866,2.2856,2.2873,2.2878,2.2859,2.2842,2.2844,2.2851,2.2842,2.2848,2.2876,2.2863,2.2753,2.2737,2.2721,2.2712,2.2877,2.2877,2.2981,2.2982,2.2982]},{"header":{"parameterUnit":"m.s-1","parameterCategory":1,"la1":30.2991,"la2":30.254,"lo1":-89.0895,"lo2":-89.0444,"dy":0.0017,"dx":0.0017,"nx":28,"ny":28,"refTime":"2023-06-28T21:00:00:Z","depth":0,"parameterNumber":3,"parameterNumberName":"V-component_of_WINDS"},"data":[0,0,0,0,0,0,0,0,0,0,0,0,0,0,0,0,0,0,0,0,0,0,0,0,0,0,0,0,0,0,0,0,0,0,0,0,0,0,0,0,0,0,0,0,0,0,0,0,0,0,0,0,0,0,0,0,0,0,-0.9909,-0.9908,0,-0.9828,-0.9827,-0.9826,-0.9796,-0.9796,-0.9796,-0.9797,-0.9715,-0.9713,-0.9711,0,0,0,0,0,0,0,0,0,0,0,0,0,-1.0042,-1.004,-0.9909,-0.9908,-0.9907,-0.9828,-0.9827,-0.9825,-0.9796,-0.9796,-0.9796,-0.9797,-0.9716,-0.9713,-0.971,0,0,0,0,0,0,0,0,0,0,0,0,0,-0.9975,-1.0039,-0.9909,-0.9882,-0.9879,-0.9828,-0.9827,-0.9825,-0.9796,-0.9796,-0.9797,-0.9797,-0.9717,-0.9714,-0.971,-0.968,0,0,-0.9699,-0.9697,0,0,0,0,0,0,0,0,-0.9979,-0.997,-0.9887,-0.9884,-0.9881,-0.9822,-0.9844,-0.9777,-0.9796,-0.9828,-0.9797,-0.9797,-0.9751,-0.9744,-0.9728,-0.9676,-0.9673,-0.9699,-0.9697,-0.9695,-0.9694,0,0,0,0,0,0,0,-0.9983,-0.9973,-0.9877,-0.9886,-0.9882,-0.9876,-0.9867,-0.9831,-0.9788,-0.9825,-0.9822,-0.9813,-0.9749,-0.9732,-0.9726,-0.9671,-0.9699,-0.9696,-0.9693,-0.9692,-0.9592,-0.9592,0,0,0,0,0,0,-0.9992,-0.9977,-0.9879,-0.9874,-0.9932,-0.9873,-0.9863,-0.9841,-0.9788,-0.9781,-0.9813,-0.9812,-0.9738,-0.973,-0.9723,-0.9685,-0.9695,-0.9692,-0.969,-0.9593,-0.9592,-0.9592,0,0,0,0,0,0,-0.9995,-0.9984,-0.9883,-0.9925,-0.9912,-0.987,-0.9846,-0.9839,-0.9822,-0.9779,-0.9772,-0.9803,-0.9738,-0.9728,-0.9691,-0.9682,-0.969,-0.9687,-0.9593,-0.9593,-0.9592,-0.9609,0,0,0,0,0,0,-0.9999,-0.9985,-0.9972,-0.9925,-0.991,-0.9851,-0.9845,-0.9837,-0.9815,-0.9813,-0.9768,-0.9761,-0.9738,-0.9697,-0.9688,-0.9677,-0.9684,-0.9594,-0.9593,-0.9592,-0.9609,-0.9609,-0.9609,0,0,0,0,0,-1.0004,-0.998,-0.9971,-0.996,-0.9892,-0.985,-0.9842,-0.9814,-0.9815,-0.9802,-0.9775,-0.9762,-0.9685,-0.9693,-0.9683,-0.9671,-0.9594,-0.9593,-0.9592,-0.9609,-0.9609,-0.9609,0,0,0,0,0,0,-1.0027,-0.9973,-0.9963,-0.9923,-0.9891,-0.9845,-0.9828,-0.9815,-0.9783,-0.9783,-0.9751,-0.9741,-0.9707,-0.9685,-0.9696,-0.964,-0.9639,-0.9636,-0.9655,-0.9655,-0.9655,-0.9661,-0.9681,0,0,0,0,0,-1.0027,-0.9996,-0.9952,-0.9921,-0.9905,-0.987,-0.985,-0.9832,-0.9799,-0.9785,-0.9756,-0.9724,-0.9693,-0.9673,-0.9641,-0.9606,-0.9597,-0.9593,-0.9593,-0.9593,-0.9591,-0.9572,-0.9571,-0.9588,-0.9588,-0.9588,0,0,-1.0027,-0.9994,-0.9977,-0.9925,-0.9898,-0.9868,-0.9859,-0.9827,-0.9805,-0.9781,-0.9744,-0.9721,-0.9684,-0.9648,-0.9631,-0.9629,-0.9584,-0.9592,-0.9592,-0.959,-0.9571,-0.9569,-0.9568,-0.9588,-0.9588,-0.9588,0,0,-1.0013,-0.9984,-0.9956,-0.993,-0.989,-0.9867,-0.986,-0.9816,-0.9801,-0.9763,-0.9745,-0.9719,-0.9665,-0.964,-0.962,-0.9599,-0.9586,-0.959,-0.9589,-0.9571,-0.957,-0.9569,-0.9562,-0.956,-0.9588,-0.9588,-0.9588,0,-1.0019,-0.9972,-0.9944,-0.9913,-0.9891,-0.9868,-0.9841,-0.9817,-0.9769,-0.9755,-0.9754,-0.9687,-0.966,-0.9619,-0.9614,-0.9599,-0.9591,-0.9594,-0.9572,-0.9571,-0.9569,-0.9562,-0.956,-0.9588,-0.9588,-0.9588,-0.9588,0,-0.9981,-0.995,-0.9932,-0.9886,-0.9862,-0.9833,-0.9802,-0.9782,-0.9767,-0.9745,-0.9708,-0.9675,-0.9638,-0.9627,-0.9612,-0.9584,-0.9584,-0.9578,-0.9576,-0.9568,-0.9562,-0.9559,-0.9589,-0.9589,-0.9589,-0.9589,0,0,-0.9977,-0.9918,-0.9912,-0.9891,-0.9847,-0.9822,-0.9793,-0.9756,-0.974,-0.9709,-0.9684,-0.9641,-0.9635,-0.9613,-0.9595,-0.9579,-0.9566,-0.9575,-0.9574,-0.9575,-0.9535,-0.954,-0.9537,-0.9558,-0.9558,-0.9557,-0.9538,0,-0.9957,-0.9903,-0.9878,-0.9836,-0.9807,-0.9786,-0.9761,-0.9732,-0.9711,-0.9684,-0.9662,-0.9631,-0.9626,-0.9612,-0.9596,-0.9571,-0.9558,-0.9572,-0.9536,-0.9535,-0.9546,-0.9534,-0.9538,-0.9522,-0.9536,-0.9535,-0.9535,0,-0.9926,-0.9894,-0.9849,-0.981,-0.9797,-0.9775,-0.974,-0.9714,-0.9682,-0.9668,-0.9644,-0.9627,-0.9597,-0.9598,-0.9558,-0.9569,-0.9553,-0.9539,-0.9537,-0.9533,-0.9534,-0.9529,-0.9516,-0.9514,-0.953,-0.953,-0.9531,0,-0.9928,-0.9875,-0.9841,-0.9825,-0.9777,-0.9763,-0.9742,-0.971,-0.969,-0.966,-0.9647,-0.9615,-0.9597,-0.9573,-0.9548,-0.9551,-0.9511,-0.9509,-0.9499,-0.95,-0.9491,-0.9492,-0.9476,-0.9481,-0.9481,-0.9481,-0.9481,0,-0.9908,-0.9882,-0.9842,-0.9821,-0.9792,-0.9764,-0.9736,-0.9714,-0.9686,-0.9662,-0.9643,-0.9621,-0.959,-0.9564,-0.9545,-0.9515,-0.9508,-0.9496,-0.9491,-0.9498,-0.9499,-0.9487,-0.9487,-0.948,-0.9481,-0.9481,-0.9481,0,-0.9906,-0.9878,-0.984,-0.9799,-0.9788,-0.9768,-0.9733,-0.9713,-0.9692,-0.9662,-0.9654,-0.962,-0.959,-0.9563,-0.9523,-0.951,-0.948,-0.9474,-0.9491,-0.9488,-0.9479,-0.9481,-0.9454,-0.945,-0.9459,-0.9458,-0.9458,0,-0.9894,-0.9874,-0.9831,-0.9813,-0.9793,-0.9765,-0.9744,-0.9717,-0.9697,-0.966,-0.9645,-0.9613,-0.9585,-0.9538,-0.9511,-0.948,-0.9474,-0.9467,-0.9469,-0.9477,-0.9474,-0.9476,-0.9474,-0.9467,-0.9467,-0.9467,-0.9467,0,-0.9878,-0.9866,-0.9837,-0.9804,-0.9781,-0.9753,-0.9726,-0.9713,-0.9681,-0.966,-0.9628,-0.9607,-0.9566,-0.9535,-0.9502,-0.9483,-0.947,-0.9467,-0.9463,-0.9469,-0.9479,-0.9474,-0.9491,-0.9467,-0.9467,-0.9467,-0.9467,-0.9467,-0.9871,-0.9852,-0.9819,-0.9789,-0.9765,-0.974,-0.972,-0.9696,-0.9669,-0.9633,-0.962,-0.9588,-0.9558,-0.9512,-0.9493,-0.9468,-0.9466,-0.946,-0.9459,-0.9458,-0.9459,-0.9484,-0.9462,-0.9462,-0.9462,-0.9462,-0.9462,0,-0.9854,-0.9833,-0.9805,-0.9767,-0.9743,-0.9733,-0.9702,-0.9683,-0.9655,-0.9628,-0.9602,-0.9567,-0.9537,-0.9508,-0.9477,-0.9464,-0.9457,-0.9456,-0.9457,-0.9453,-0.9462,-0.9469,-0.9462,-0.9462,-0.9462,-0.9462,-0.9462,-0.9462,-0.9843,-0.9811,-0.9795,-0.9752,-0.973,-0.9698,-0.9682,-0.966,-0.9638,-0.9599,-0.9574,-0.9555,-0.9528,-0.9496,-0.9468,-0.9461,-0.9451,-0.9452,-0.9443,-0.9452,-0.9452,-0.9452,-0.9459,-0.945,-0.945,-0.9435,-0.9435,-0.9435]}]]